Temp_Advection
nan nan nan nan nan nan nan nan nan nan nan nan nan nan nan nan nan nan nan nan nan nan nan nan nan nan nan nan nan nan nan nan nan nan nan nan nan nan nan nan nan nan nan nan
nan -0 -0 -0 -0 -0 -1 -0 -0 0 1 0 -0 0 -0 -0 0 -0 0 -0 0 0 0 0 0 0 0 0 0 0 0 -0 -0 -0 -0 -0 -0 0 0 0 0 -1 -0 nan
nan 0 -0 -0 -0 -0 -0 -0 0 0 -0 -0 -0 -0 -0 0 0 0 0 0 -0 -0 -0 -0 0 0 0 0 0 0 -0 -0 -0 -0 -0 -0 -0 -0 0 0 -0 -0 -0 nan
nan -0 -0 0 -0 0 -0 -0 0 -0 -0 0 0 0 -0 0 -0 0 -0 -0 -1 -0 -0 -0 -0 0 -0 -0 0 -0 -0 -0 0 0 0 0 -0 0 0 -0 -2 -0 -0 nan
nan -0 0 0 0 0 -0 -0 0 0 0 0 0 -0 -0 -0 0 -0 -0 -0 -0 0 -0 -0 0 0 -0 -0 -0 -0 0 -0 0 -0 0 0 -0 -1 -0 -1 -0 -0 -0 nan
nan -2 -1 0 0 0 -0 -0 -0 -0 -0 -0 -0 -0 0 0 0 -0 0 0 0 0 -0 1 0 0 0 0 -0 0 -0 0 -0 0 0 -0 -1 -0 0 -0 -0 0 -1 nan
nan -2 -2 -0 -0 -0 -1 -0 0 0 -0 -0 0 0 0 0 0 0 0 0 0 -0 0 -0 0 0 0 0 0 0 0 -0 -0 -0 -0 -1 0 0 0 -0 -0 0 -1 nan
nan -1 -2 -2 -0 2 0 0 0 -0 -0 -0 0 0 -0 -0 -0 -0 -0 -0 0 0 0 -0 -0 -0 -0 0 0 0 0 0 -0 0 -0 -1 1 0 0 0 -0 0 0 nan
nan -0 -1 -1 -0 -1 -0 2 0 1 0 -0 -0 -0 -0 -0 0 0 0 0 1 1 -0 0 -0 -0 -0 -0 -0 0 0 -0 0 0 -0 -0 -0 -0 0 -0 -0 -0 0 nan
nan -1 -1 -1 -1 -1 -1 -0 1 2 0 -1 1 0 0 0 0 0 0 0 0 0 0 0 -0 0 0 -0 -1 -0 -0 -0 0 -0 -0 -0 0 -0 -0 -0 -0 -0 0 nan
nan -1 -1 -1 -1 -1 -0 -0 -0 0 -0 0 1 1 1 0 0 0 0 -0 0 0 -0 0 0 0 0 0 -0 0 -0 -0 0 -0 0 -0 1 0 -0 -0 -0 -0 -0 nan
nan -0 -0 -0 -1 -1 -1 -0 -1 -1 -0 -0 -0 -0 -0 0 1 1 0 -0 0 0 0 0 0 0 0 -0 0 -0 -0 0 -0 -0 -0 -0 0 -0 0 0 0 -0 -0 nan
nan 0 0 -0 -0 -0 -1 -0 -0 -0 -0 -1 -1 -1 0 1 1 0 0 0 0 0 0 0 0 0 -0 0 0 -0 0 0 -0 0 0 1 -0 -1 -0 -0 0 0 -0 nan
nan 0 0 0 0 0 0 -0 -0 0 0 -0 -0 -0 -0 0 -0 -0 0 0 0 0 0 0 -0 0 0 0 -0 0 -0 -0 -0 -0 -0 -0 0 0 -0 -0 -1 -0 -0 nan
nan -0 0 0 0 -0 0 -0 -0 0 -0 -0 -0 -1 -1 -0 0 1 1 -0 -0 0 0 -0 0 0 0 0 -0 -0 -0 -0 -0 -1 -0 0 0 0 0 -0 -1 -1 -1 nan
nan 0 -0 0 0 0 0 0 0 -0 -0 -0 -0 -0 -0 -0 -0 0 0 0 0 -0 -0 0 0 -0 0 -0 -0 -0 -1 -0 0 0 -0 0 0 -0 -0 -0 -0 -0 -0 nan
nan -0 0 -0 0 0 -0 -0 0 0 0 -0 -0 -0 -0 -0 0 0 0 0 0 0 0 0 -0 0 -0 -0 -0 0 0 -0 -0 -0 -0 -0 -0 -0 -1 -1 -1 -0 -0 nan
nan -0 -0 -0 0 0 -0 -0 0 0 0 0 -0 -0 -0 -0 0 0 0 0 -0 -0 -0 -0 0 -0 -0 -0 -1 -1 -1 -1 -0 -0 -0 -1 -1 -0 -1 -1 -1 -0 -0 nan
nan -0 -0 -0 0 0 -0 -0 0 0 -0 0 -0 -0 -0 0 0 -0 0 0 -0 -0 -0 0 -0 0 0 -0 -1 -1 -0 -0 -1 -1 -1 -0 -1 -1 -0 -0 -0 -1 -0 nan
nan -0 -0 -0 -0 -0 0 0 0 -0 -0 0 -0 -0 -0 0 -0 0 0 -0 -0 -0 0 -0 -0 -0 -1 -0 -0 -0 0 -0 -0 -1 -1 -1 -1 -1 -0 -0 -0 -0 -1 nan
nan 0 -0 -0 -0 -0 0 -0 -0 -0 0 -0 -0 -0 -0 -0 -0 0 -0 0 0 -0 0 -0 0 -0 -0 -0 -0 -0 -0 -0 -0 -0 -0 -0 -0 -0 -0 -0 -0 -0 -0 nan
nan 0 -0 -0 -0 -0 -0 -0 -0 -0 -0 -0 -0 -0 -0 -0 -0 0 -0 -0 -0 -0 0 0 -0 -0 -1 -0 -0 -0 -0 -0 -0 -0 -0 -0 -0 -0 -0 -0 -0 -0 -0 nan
nan 0 0 -0 -0 -0 0 -0 -0 -0 -0 -0 -0 -0 -0 -0 -0 -0 -0 0 0 -0 -0 -0 -0 -1 -0 0 0 0 0 0 0 0 0 0 0 -0 -0 -0 -0 -0 -0 nan
nan -0 -0 -0 -0 0 -0 -0 -0 -0 0 -0 -0 -0 -0 -0 -0 -0 -0 -0 -0 -0 -0 -0 -0 -0 0 0 1 1 0 -0 -0 -0 -0 0 -0 -0 -0 -0 0 0 -0 nan
nan -0 -0 -0 -0 -0 -0 -0 -0 -0 -0 -0 -0 -0 -0 -0 -0 -0 -0 -0 -0 -0 -0 -0 -0 0 0 0 0 -0 -0 -0 -0 -0 -0 -0 -0 -0 -0 -0 -0 -0 -0 nan
nan -0 -0 -0 -0 -0 -0 -0 -0 -0 -0 0 -0 -0 -0 -0 -0 -0 -0 -0 -0 -0 -0 -0 0 0 0 -0 -0 -0 -0 -0 -0 -0 -0 -0 -0 -0 -0 -0 -0 -0 -0 nan
nan nan nan nan nan nan nan nan nan nan nan nan nan nan nan nan nan nan nan nan nan nan nan nan nan nan nan nan nan nan nan nan nan nan nan nan nan nan nan nan nan nan nan nan
Wind_Speed
27 24 22 19 18 18 16 7 3 7 11 4 3 4 6 4 5 7 5 4 7 7 7 5 5 6 5 8 10 6 5 2 5 8 2 1 4 5 10 7 7 2 2 6
28 26 22 20 18 15 15 7 6 9 16 5 4 3 5 6 7 7 7 5 7 4 6 5 7 5 2 10 8 6 7 4 3 3 3 2 6 8 6 2 2 8 5 5
28 26 25 23 21 16 13 6 3 5 13 7 3 3 5 5 7 4 6 4 4 4 6 8 3 5 4 9 7 5 6 4 7 5 2 3 5 9 13 10 6 11 12 16
36 32 29 29 26 19 13 8 5 5 4 7 9 4 2 4 5 7 10 5 12 10 7 5 8 9 4 5 6 6 4 6 7 11 11 7 8 9 14 14 20 11 15 16
43 42 36 34 31 26 22 7 6 5 4 3 6 8 7 9 7 8 6 9 9 16 12 10 7 7 7 6 8 8 4 3 2 5 4 9 13 16 16 19 19 19 21 26
36 47 45 42 38 35 26 25 23 7 5 3 5 6 8 8 3 10 7 12 7 10 20 15 6 7 2 3 6 11 6 4 4 4 2 5 10 18 20 14 14 15 15 22
33 22 39 48 47 44 41 27 21 9 6 9 9 4 7 8 10 7 3 8 6 3 4 4 5 4 3 6 8 7 6 5 3 3 3 5 2 2 3 14 12 20 19 21
30 32 21 27 49 50 48 42 32 16 6 14 14 14 12 13 17 14 13 13 13 8 7 2 4 3 3 7 3 8 5 6 4 3 6 10 10 3 6 7 3 10 18 17
26 24 31 23 5 6 52 49 43 25 10 14 25 18 18 11 7 4 7 12 13 13 4 4 6 7 4 6 4 2 4 2 6 3 4 5 1 2 3 2 5 4 6 2
27 26 22 25 24 21 7 1 28 24 9 18 19 10 13 9 6 3 2 6 7 11 5 7 6 7 1 7 10 7 6 6 15 12 8 7 8 5 4 3 1 3 3 2
27 25 23 25 26 24 18 12 6 4 4 10 20 26 15 11 10 6 5 5 4 4 6 5 5 5 6 4 5 8 10 10 6 9 7 10 12 6 5 2 2 1 1 2
26 23 22 20 24 24 25 18 16 12 4 5 10 16 21 19 18 16 10 2 2 4 4 3 2 3 3 5 5 2 6 5 6 11 7 1 15 0 10 1 2 4 6 6
20 20 23 20 21 24 23 17 18 18 9 10 8 13 17 23 26 21 7 8 11 7 6 2 2 4 5 6 6 5 5 4 3 3 6 10 11 15 19 19 19 17 18 17
21 20 19 17 15 16 18 19 13 13 5 3 5 6 7 6 9 15 20 17 6 8 14 7 3 3 6 3 1 4 1 10 6 5 7 11 12 10 12 12 14 14 19 18
23 23 22 20 12 13 17 19 13 12 6 5 8 20 25 25 22 23 20 15 13 7 5 3 4 4 2 1 1 4 7 6 4 11 20 20 21 22 12 16 19 15 18 24
24 20 20 19 13 12 15 4 5 7 14 4 3 7 11 12 13 9 18 20 13 8 4 2 4 4 5 4 4 4 14 23 19 19 22 14 17 22 24 20 14 14 13 14
24 20 16 17 15 13 9 5 12 15 16 4 5 5 4 5 6 7 5 8 12 12 3 4 2 3 5 2 2 4 4 4 9 8 10 13 12 10 20 16 17 16 16 17
20 17 16 16 14 17 19 19 13 15 10 4 3 4 4 2 2 3 7 6 8 7 5 4 3 7 4 4 7 6 6 6 3 5 8 12 19 21 20 18 15 13 11 10
18 15 12 13 11 6 3 6 7 3 7 3 4 2 3 2 1 2 3 3 2 5 3 3 6 2 3 4 7 8 9 7 13 14 12 10 10 12 11 9 10 11 12 13
12 11 4 3 2 4 10 4 4 3 6 8 4 4 4 3 0 0 1 2 2 2 3 6 4 3 4 6 4 5 6 6 8 10 11 13 11 11 12 11 10 12 14 15
7 1 2 5 7 6 2 3 3 2 3 2 5 3 6 7 5 3 3 1 2 3 3 6 4 3 4 10 6 7 7 7 7 6 6 7 8 11 13 12 10 10 9 10
2 2 7 4 2 1 2 2 4 2 3 8 7 7 6 6 5 4 4 3 2 4 6 3 3 4 13 11 7 10 12 12 12 12 12 13 13 12 11 11 12 11 10 8
3 2 1 3 3 5 2 4 2 3 7 6 11 7 4 5 2 4 2 4 4 2 2 3 3 11 16 17 14 15 16 16 15 15 12 10 11 11 12 12 12 12 13 12
2 1 4 3 2 0 1 2 2 4 6 12 12 7 4 4 2 2 2 2 2 3 3 3 3 11 11 14 16 18 18 16 15 15 14 13 12 12 11 11 11 10 9 8
3 2 2 1 1 2 3 6 7 7 11 12 8 6 4 2 3 3 3 3 4 5 3 2 9 10 13 15 16 15 15 15 14 15 14 14 13 12 11 10 9 9 8 7
3 5 2 3 1 4 5 7 8 15 16 8 3 2 3 3 4 3 5 3 4 3 3 7 10 12 12 13 13 13 14 14 14 15 15 14 14 14 13 12 11 10 10 11
3 3 6 5 3 3 6 9 10 17 8 3 3 3 3 3 3 3 3 3 2 5 7 7 6 9 10 10 11 13 13 14 14 14 13 13 13 13 13 13 14 14 14 14
Wind_Direction
286 285 293 302 314 327 325 301 248 210 183 203 219 224 200 191 198 194 251 267 231 215 186 217 235 236 238 182 165 176 186 254 210 213 126 331 284 235 212 225 215 228 295 276
282 278 284 289 298 310 325 287 258 212 187 224 221 263 269 227 182 190 177 228 239 209 206 222 214 211 163 176 184 186 172 205 235 192 171 185 222 215 226 163 18 219 248 257
279 271 275 278 280 286 298 267 260 204 198 235 239 215 244 246 215 209 190 189 161 202 235 226 225 230 184 192 206 193 186 213 233 255 87 125 204 202 214 214 219 241 228 261
270 263 264 267 268 266 267 244 240 226 203 225 216 201 267 221 225 212 193 212 215 192 225 213 228 215 175 187 205 181 220 243 221 251 257 234 239 225 203 207 231 231 251 241
267 269 260 255 259 253 240 245 235 204 257 245 200 201 220 224 234 181 214 227 221 206 226 210 198 185 200 203 176 186 192 248 221 275 226 233 251 248 234 229 238 254 263 271
279 261 261 254 251 247 235 235 238 234 206 188 205 221 221 226 191 228 237 224 226 218 232 231 223 193 143 164 180 189 186 208 201 259 304 281 263 240 220 217 219 226 239 250
324 304 262 253 249 243 235 227 218 192 239 217 224 236 225 231 226 253 270 203 200 223 219 152 195 220 190 179 186 189 179 196 215 284 275 246 349 160 203 217 240 219 251 259
329 335 338 258 247 243 232 228 219 212 232 217 229 240 244 262 267 249 245 237 227 196 164 221 203 180 195 210 208 202 202 188 208 240 230 311 288 203 186 194 247 213 233 266
333 336 346 1 71 317 226 225 224 215 224 222 231 225 237 238 239 243 222 226 208 177 191 194 226 218 188 184 169 93 171 243 221 168 223 242 350 156 197 193 278 146 200 234
327 329 344 351 1 357 9 47 218 211 209 235 205 208 221 195 210 247 161 168 173 188 190 215 217 232 202 192 180 167 175 204 216 219 240 279 254 156 156 217 13 141 181 232
336 337 334 344 337 350 359 346 338 262 271 222 209 208 204 192 206 221 149 135 184 166 197 203 200 228 209 206 151 176 176 169 188 201 219 249 158 119 202 55 104 104 235 258
334 338 346 345 343 342 333 349 351 336 312 286 263 243 233 232 226 207 200 292 29 170 193 225 173 196 185 217 221 193 211 206 186 195 203 53 194 264 208 126 307 301 291 310
331 330 334 342 344 336 339 325 346 357 350 326 320 282 275 249 240 233 218 215 215 216 246 215 220 223 170 189 224 198 223 172 229 176 220 237 239 254 271 278 284 290 292 289
326 320 314 319 324 335 327 332 316 321 316 298 267 295 296 270 280 254 240 220 208 235 223 216 223 228 205 228 314 224 128 154 201 243 279 291 276 303 317 313 303 303 304 299
316 317 327 319 312 312 309 314 286 270 236 274 280 285 279 260 249 257 261 268 276 245 186 196 219 203 205 159 265 236 191 190 215 264 286 281 289 292 300 314 311 310 302 298
314 304 308 324 306 308 331 298 33 56 15 320 300 300 274 278 280 260 232 232 245 224 198 224 227 205 196 212 226 259 229 239 242 262 276 292 284 296 303 303 313 310 301 297
311 297 292 302 317 322 280 283 295 306 323 339 306 283 268 287 165 156 170 210 216 214 191 219 238 201 196 257 227 229 234 301 285 296 295 298 315 309 309 310 307 302 300 294
314 306 291 289 294 288 288 305 293 264 263 229 260 274 301 320 84 99 179 202 209 220 208 209 216 148 197 242 357 9 356 335 318 348 346 309 300 303 306 308 311 311 312 310
299 299 305 294 283 264 264 302 290 235 207 232 207 271 311 6 88 122 180 200 242 226 216 206 169 150 209 27 4 11 6 354 312 326 331 327 338 326 321 314 306 306 307 305
303 320 269 255 245 279 310 286 220 236 210 213 235 233 250 288 115 341 300 189 238 257 219 156 200 105 67 34 37 30 27 22 7 4 10 4 1 348 338 329 317 313 314 311
302 262 253 280 299 302 272 296 266 251 219 7 320 291 269 261 234 224 232 301 228 241 188 190 170 74 3 357 21 31 40 36 33 34 21 18 10 4 359 355 349 342 334 328
212 237 289 293 308 3 12 300 321 339 16 340 338 321 302 306 218 201 192 237 190 249 149 194 71 24 353 10 28 41 56 56 52 48 46 41 35 27 22 25 28 25 22 21
214 208 273 15 351 45 46 345 5 339 341 355 337 330 310 296 264 253 248 215 205 327 63 71 49 355 18 32 55 60 60 55 52 49 47 41 35 33 33 35 39 38 35 40
76 57 22 14 24 353 206 285 282 297 297 322 326 291 287 303 313 318 288 341 327 52 65 70 24 6 14 44 53 56 53 49 48 46 43 41 39 37 31 26 20 17 18 20
55 27 44 23 315 323 328 320 322 340 318 325 310 284 259 329 337 7 336 23 53 34 47 69 13 13 29 37 41 43 42 38 34 31 28 26 22 20 18 14 10 359 354 348
42 42 30 360 355 354 5 354 352 347 333 328 287 309 342 31 335 27 20 47 37 69 53 35 26 20 30 33 37 34 30 26 23 17 14 10 7 5 4 356 346 342 333 324
37 25 28 18 18 329 348 351 341 345 347 3 331 14 7 304 36 37 15 35 41 29 31 29 26 27 24 23 18 15 17 23 25 19 15 7 358 351 340 339 338 335 328 321
Height
1539 1537 1535 1534 1532 1530 1526 1523 1521 1517 1518 1524 1519 1511 1503 1504 1503 1507 1510 1511 1503 1501 1500 1501 1502 1497 1496 1500 1500 1500 1502 1500 1499 1497 1501 1503 1501 1492 1490 1491 1493 1497 1495 1473
1532 1532 1531 1531 1529 1528 1525 1522 1516 1512 1515 1513 1511 1508 1505 1499 1499 1500 1503 1504 1505 1502 1498 1498 1495 1496 1496 1497 1499 1498 1499 1497 1495 1493 1500 1502 1497 1493 1492 1493 1493 1485 1485 1467
1526 1526 1526 1526 1525 1524 1525 1520 1512 1511 1509 1505 1504 1502 1499 1499 1494 1495 1497 1496 1500 1503 1498 1496 1490 1493 1494 1496 1497 1497 1499 1491 1485 1477 1476 1482 1490 1487 1490 1488 1485 1474 1474 1460
1516 1517 1518 1519 1519 1518 1521 1516 1504 1501 1497 1498 1499 1499 1495 1493 1492 1492 1492 1494 1491 1491 1492 1492 1491 1489 1492 1495 1495 1496 1496 1489 1486 1480 1481 1483 1477 1477 1482 1489 1474 1471 1454 1457
1506 1506 1507 1509 1511 1509 1510 1507 1503 1497 1495 1495 1495 1493 1489 1486 1483 1487 1485 1485 1481 1485 1483 1476 1478 1481 1485 1481 1492 1493 1494 1484 1488 1482 1478 1480 1477 1470 1470 1471 1468 1465 1463 1452
1493 1492 1493 1495 1497 1497 1495 1496 1494 1494 1487 1489 1491 1484 1480 1479 1482 1477 1476 1477 1480 1482 1474 1477 1477 1477 1478 1481 1483 1487 1489 1484 1485 1473 1479 1476 1466 1451 1454 1453 1456 1455 1457 1438
1486 1479 1477 1479 1480 1481 1483 1484 1485 1486 1478 1480 1480 1480 1479 1477 1476 1476 1475 1476 1477 1473 1474 1474 1477 1477 1477 1478 1479 1481 1484 1484 1482 1472 1476 1467 1438 1447 1446 1446 1444 1448 1441 1434
1482 1476 1464 1460 1462 1463 1465 1468 1472 1473 1469 1471 1472 1474 1475 1474 1473 1472 1470 1471 1471 1468 1473 1475 1471 1474 1474 1473 1478 1479 1479 1476 1474 1472 1467 1449 1431 1447 1446 1444 1431 1435 1436 1434
1479 1472 1464 1455 1451 1441 1445 1450 1456 1458 1459 1453 1461 1462 1463 1463 1465 1465 1462 1462 1466 1466 1469 1469 1464 1456 1451 1467 1477 1479 1481 1480 1471 1482 1469 1456 1437 1442 1445 1446 1432 1433 1435 1433
1477 1471 1464 1458 1450 1445 1442 1441 1442 1445 1444 1443 1450 1451 1453 1457 1459 1457 1458 1458 1462 1463 1461 1460 1460 1452 1454 1450 1456 1473 1475 1474 1465 1464 1461 1452 1436 1442 1444 1440 1433 1434 1435 1435
1477 1470 1465 1458 1453 1448 1444 1442 1440 1440 1440 1440 1441 1443 1445 1448 1451 1452 1454 1456 1457 1460 1458 1453 1451 1452 1448 1446 1446 1453 1454 1460 1462 1463 1467 1460 1435 1443 1440 1433 1433 1434 1434 1434
1475 1471 1465 1459 1457 1452 1447 1448 1445 1443 1441 1440 1439 1438 1440 1442 1444 1447 1449 1448 1448 1448 1449 1451 1446 1447 1454 1442 1435 1452 1444 1436 1442 1441 1435 1431 1432 1431 1432 1433 1435 1435 1435 1435
1473 1468 1462 1458 1456 1453 1451 1449 1447 1445 1442 1436 1437 1438 1436 1436 1438 1440 1442 1442 1444 1445 1445 1445 1443 1441 1440 1439 1439 1436 1440 1439 1437 1437 1425 1428 1431 1432 1432 1432 1432 1432 1432 1432
1472 1468 1465 1462 1459 1457 1454 1451 1449 1447 1444 1442 1435 1434 1434 1433 1433 1433 1434 1436 1437 1439 1440 1442 1441 1439 1434 1430 1430 1430 1430 1435 1432 1430 1427 1425 1425 1427 1429 1429 1431 1431 1430 1428
1468 1465 1462 1460 1458 1455 1453 1449 1444 1445 1448 1441 1433 1430 1429 1427 1428 1430 1432 1432 1434 1435 1436 1435 1434 1433 1436 1435 1435 1429 1428 1425 1427 1421 1425 1426 1427 1427 1427 1426 1427 1427 1426 1425
1463 1461 1459 1457 1455 1452 1449 1446 1445 1443 1444 1441 1433 1428 1424 1423 1421 1422 1425 1428 1430 1433 1430 1431 1428 1428 1430 1427 1423 1420 1419 1419 1422 1424 1424 1424 1424 1423 1424 1423 1422 1421 1421 1420
1457 1455 1454 1453 1451 1450 1449 1448 1446 1442 1441 1443 1437 1428 1422 1420 1418 1418 1423 1427 1427 1428 1426 1427 1427 1426 1425 1424 1419 1418 1418 1419 1420 1420 1420 1419 1420 1420 1420 1418 1417 1415 1414 1413
1453 1450 1449 1448 1447 1446 1443 1441 1439 1439 1442 1443 1442 1429 1423 1420 1417 1419 1421 1423 1424 1423 1422 1423 1422 1423 1424 1419 1420 1419 1418 1418 1418 1418 1419 1419 1417 1416 1416 1414 1412 1411 1410 1408
1448 1446 1445 1443 1442 1441 1441 1440 1439 1439 1442 1438 1437 1431 1424 1422 1419 1419 1421 1421 1420 1421 1418 1418 1418 1418 1417 1423 1423 1421 1420 1419 1418 1417 1416 1416 1415 1413 1412 1411 1410 1408 1407 1407
1445 1443 1442 1441 1440 1440 1441 1437 1437 1436 1434 1434 1432 1428 1425 1422 1418 1419 1422 1420 1419 1416 1415 1416 1414 1417 1425 1424 1424 1422 1421 1419 1418 1416 1415 1414 1414 1413 1412 1411 1409 1407 1406 1405
1442 1441 1441 1440 1439 1439 1437 1436 1436 1431 1427 1429 1427 1425 1424 1421 1420 1419 1420 1416 1417 1412 1408 1410 1411 1424 1428 1426 1425 1423 1421 1419 1419 1418 1417 1416 1415 1414 1412 1410 1408 1406 1405 1404
1441 1442 1440 1439 1439 1438 1440 1438 1436 1435 1434 1432 1430 1428 1424 1419 1417 1417 1418 1415 1417 1410 1409 1408 1422 1431 1431 1427 1425 1424 1422 1422 1421 1420 1418 1418 1417 1415 1414 1412 1410 1408 1406 1404
1439 1440 1440 1440 1442 1445 1444 1443 1440 1439 1438 1435 1433 1429 1424 1420 1418 1415 1412 1408 1408 1409 1408 1425 1435 1437 1432 1429 1426 1425 1425 1425 1424 1422 1421 1421 1420 1418 1417 1415 1413 1412 1409 1408
1440 1441 1445 1444 1446 1445 1445 1445 1444 1443 1440 1437 1435 1431 1427 1421 1418 1415 1411 1412 1410 1409 1420 1433 1439 1439 1436 1433 1431 1429 1428 1428 1427 1426 1424 1422 1421 1420 1419 1417 1415 1414 1412 1410
1443 1444 1446 1448 1447 1446 1446 1445 1443 1442 1439 1437 1434 1431 1428 1423 1422 1420 1418 1416 1423 1427 1434 1439 1441 1440 1437 1435 1433 1432 1431 1430 1428 1427 1425 1423 1422 1421 1419 1417 1416 1415 1414 1412
1447 1448 1449 1449 1448 1447 1446 1445 1443 1442 1437 1435 1434 1431 1429 1427 1427 1424 1427 1429 1433 1438 1441 1442 1441 1440 1438 1437 1436 1435 1433 1431 1429 1427 1425 1424 1422 1420 1419 1417 1415 1414 1412 1410
1451 1453 1452 1452 1451 1450 1449 1447 1445 1442 1439 1437 1436 1435 1435 1434 1433 1436 1437 1439 1442 1443 1443 1443 1443 1442 1440 1439 1438 1436 1435 1432 1430 1429 1427 1426 1424 1422 1420 1417 1414 1412 1410 1408